When you browse on this site, cookies collect data to enhance your experience and personalize the content and advertising you see.
Visit our Privacy Policy to learn more. By continuing to use the site, you agree to this use of cookies and data.
  • In Spain
  • List of Countries
  • For 7 days
  • Water Temperature
  • Weather Map
  • Weather Widgets
  • user-avatar
    Login

    Hourly Weather Kannyn

    Today, 31 May, Sunday

    Time Temperature Precipitation Wind Pressure Humidity
    00:00 +18°C° 0 mm 3 mps 753 mmHg 68%
    01:00 +18°C° 0 mm 2 mps 752 mmHg 68%
    02:00 +17°C° 0 mm 2 mps 752 mmHg 68%
    03:00 +17°C° 0 mm 2 mps 752 mmHg 66%
    04:00 +17°C° 0 mm 2 mps 752 mmHg 66%
    05:00 +17°C° 0 mm 2 mps 752 mmHg 66%
    06:00 +17°C° 0 mm 2 mps 752 mmHg 66%
    07:00 +20°C° 0 mm 2 mps 751 mmHg 59%
    08:00 +24°C° 0 mm 2 mps 751 mmHg 53%
    09:00 +27°C° 0 mm 2 mps 751 mmHg 46%
    10:00 +28°C° 0 mm 2 mps 751 mmHg 43%
    11:00 +28°C° 0 mm 2 mps 751 mmHg 40%
    12:00 +29°C° 0 mm 2 mps 750 mmHg 37%
    13:00 +29°C° 0 mm 2 mps 750 mmHg 38%
    14:00 +29°C° 0 mm 2 mps 749 mmHg 38%
    15:00 +29°C° 0 mm 2 mps 748 mmHg 39%
    16:00 +27°C° 0 mm 2 mps 748 mmHg 46%
    17:00 +25°C° 0 mm 2 mps 749 mmHg 54%
    18:00 +24°C° 0 mm 3 mps 749 mmHg 62%
    19:00 +23°C° 0 mm 2 mps 748 mmHg 66%
    20:00 +21°C° 0 mm 2 mps 748 mmHg 69%
    21:00 +20°C° 0 mm 2 mps 748 mmHg 73%
    22:00 +20°C° 0 mm 2 mps 748 mmHg 75%
    23:00 +19°C° 0 mm 2 mps 748 mmHg 77%

    Tomorrow, 1 June, Monday

    Time Temperature Precipitation Wind Pressure Humidity
    00:00 +19°C° 0 mm 2 mps 748 mmHg 80%
    01:00 +19°C° 0 mm 2 mps 748 mmHg 82%
    02:00 +18°C° 0 mm 2 mps 747 mmHg 85%
    03:00 +18°C° 0 mm 2 mps 747 mmHg 88%
    04:00 +18°C° 0 mm 3 mps 747 mmHg 87%
    05:00 +18°C° 0 mm 3 mps 747 mmHg 87%
    06:00 +19°C° 0 mm 4 mps 747 mmHg 87%
    07:00 +20°C° 0 mm 4 mps 747 mmHg 75%
    08:00 +21°C° 0 mm 5 mps 747 mmHg 63%
    09:00 +22°C° 0 mm 5 mps 747 mmHg 51%
    10:00 +23°C° 0 mm 6 mps 747 mmHg 45%
    11:00 +26°C° 0 mm 6 mps 747 mmHg 38%
    12:00 +27°C° 0 mm 6 mps 747 mmHg 32%
    13:00 +27°C° 0 mm 6 mps 747 mmHg 31%
    14:00 +27°C° 0 mm 6 mps 747 mmHg 30%
    15:00 +28°C° 0 mm 6 mps 746 mmHg 29%
    16:00 +27°C° 0 mm 5 mps 747 mmHg 33%
    17:00 +26°C° 0 mm 5 mps 747 mmHg 37%
    18:00 +25°C° 0 mm 5 mps 747 mmHg 41%
    19:00 +22°C° 0 mm 4 mps 747 mmHg 44%
    20:00 +21°C° 0 mm 4 mps 747 mmHg 46%
    21:00 +19°C° 0 mm 4 mps 747 mmHg 49%
    22:00 +19°C° 0 mm 4 mps 748 mmHg 51%
    23:00 +18°C° 0 mm 3 mps 748 mmHg 54%

    Day after tomorrow, 2 June, Tuesday

    Time Temperature Precipitation Wind Pressure Humidity
    00:00 +17°C° 0 mm 3 mps 748 mmHg 57%
    01:00 +17°C° 0 mm 3 mps 748 mmHg 57%
    02:00 +17°C° 0 mm 3 mps 747 mmHg 58%
    03:00 +17°C° 0 mm 3 mps 747 mmHg 58%
    04:00 +17°C° 0 mm 3 mps 747 mmHg 59%
    05:00 +17°C° 0 mm 3 mps 747 mmHg 59%
    06:00 +17°C° 0 mm 3 mps 747 mmHg 60%
    07:00 +19°C° 0 mm 3 mps 747 mmHg 54%
    08:00 +21°C° 0 mm 2 mps 747 mmHg 47%
    09:00 +24°C° 0 mm 2 mps 746 mmHg 41%
    10:00 +25°C° 0 mm 2 mps 747 mmHg 40%
    11:00 +25°C° 0 mm 2 mps 747 mmHg 39%
    12:00 +26°C° 0 mm 3 mps 747 mmHg 37%
    13:00 +24°C° 0.3 mm 3 mps 746 mmHg 52%
    14:00 +21°C° 0.3 mm 4 mps 746 mmHg 67%
    15:00 +17°C° 0.3 mm 5 mps 745 mmHg 81%
    16:00 +20°C° 0 mm 4 mps 745 mmHg 76%
    17:00 +21°C° 0 mm 3 mps 745 mmHg 70%
    18:00 +24°C° 0 mm 2 mps 745 mmHg 65%
    19:00 +21°C° 0.2 mm 2 mps 745 mmHg 73%
    20:00 +20°C° 0.2 mm 1 mps 745 mmHg 80%
    21:00 +18°C° 0.2 mm 1 mps 744 mmHg 88%
    22:00 +18°C° 0 mm 1 mps 744 mmHg 87%
    23:00 +18°C° 0 mm 2 mps 744 mmHg 87%

    3 June, Wednesday

    Time Temperature Precipitation Wind Pressure Humidity
    00:00 +18°C° 0 mm 2 mps 744 mmHg 86%
    01:00 +18°C° 0 mm 2 mps 744 mmHg 86%
    02:00 +18°C° 0 mm 3 mps 743 mmHg 86%
    03:00 +18°C° 0 mm 3 mps 743 mmHg 86%
    04:00 +18°C° 0 mm 3 mps 743 mmHg 88%
    05:00 +18°C° 0 mm 3 mps 743 mmHg 89%
    06:00 +19°C° 0 mm 2 mps 742 mmHg 91%
    07:00 +20°C° 0 mm 2 mps 743 mmHg 83%
    08:00 +23°C° 0 mm 2 mps 743 mmHg 75%
    09:00 +25°C° 0 mm 2 mps 743 mmHg 66%
    10:00 +26°C° 0 mm 2 mps 742 mmHg 61%
    11:00 +28°C° 0 mm 3 mps 742 mmHg 56%
    12:00 +29°C° 0 mm 3 mps 742 mmHg 51%
    13:00 +30°C° 0 mm 4 mps 741 mmHg 48%
    14:00 +30°C° 0 mm 4 mps 741 mmHg 44%
    15:00 +32°C° 0 mm 4 mps 740 mmHg 41%
    16:00 +30°C° 0 mm 4 mps 740 mmHg 45%
    17:00 +29°C° 0 mm 5 mps 739 mmHg 49%
    18:00 +28°C° 0 mm 5 mps 739 mmHg 53%
    19:00 +27°C° 0 mm 4 mps 739 mmHg 58%
    20:00 +25°C° 0 mm 4 mps 739 mmHg 64%
    21:00 +22°C° 0 mm 3 mps 739 mmHg 70%
    22:00 +22°C° 0 mm 3 mps 739 mmHg 77%
    23:00 +21°C° 0 mm 3 mps 740 mmHg 84%

    4 June, Thursday

    Time Temperature Precipitation Wind Pressure Humidity
    00:00 +21°C° 0 mm 3 mps 740 mmHg 92%
    01:00 +20°C° 0 mm 3 mps 740 mmHg 90%
    02:00 +20°C° 0 mm 3 mps 740 mmHg 88%
    03:00 +20°C° 0 mm 3 mps 740 mmHg 86%
    04:00 +20°C° 0 mm 3 mps 741 mmHg 86%
    05:00 +19°C° 0 mm 3 mps 741 mmHg 87%
    06:00 +19°C° 0 mm 3 mps 741 mmHg 87%
    07:00 +21°C° 0 mm 3 mps 741 mmHg 72%
    08:00 +24°C° 0 mm 3 mps 741 mmHg 57%
    09:00 +27°C° 0 mm 3 mps 742 mmHg 42%
    10:00 +28°C° 0 mm 4 mps 741 mmHg 40%
    11:00 +29°C° 0 mm 5 mps 741 mmHg 37%
    12:00 +30°C° 0 mm 5 mps 741 mmHg 34%
    13:00 +30°C° 0 mm 5 mps 741 mmHg 33%
    14:00 +32°C° 0 mm 5 mps 741 mmHg 31%
    15:00 +32°C° 0 mm 5 mps 741 mmHg 30%
    16:00 +30°C° 0 mm 5 mps 741 mmHg 33%
    17:00 +29°C° 0 mm 5 mps 741 mmHg 37%
    18:00 +28°C° 0 mm 5 mps 741 mmHg 41%
    19:00 +26°C° 0 mm 4 mps 741 mmHg 46%
    20:00 +23°C° 0 mm 4 mps 742 mmHg 51%
    21:00 +22°C° 0 mm 4 mps 742 mmHg 56%
    22:00 +21°C° 0 mm 3 mps 743 mmHg 55%
    23:00 +21°C° 0 mm 3 mps 743 mmHg 55%

    5 June, Friday

    Time Temperature Precipitation Wind Pressure Humidity
    00:00 +20°C° 0 mm 3 mps 743 mmHg 55%
    01:00 +20°C° 0 mm 3 mps 743 mmHg 55%
    02:00 +19°C° 0 mm 2 mps 743 mmHg 56%
    03:00 +19°C° 0 mm 2 mps 743 mmHg 56%
    04:00 +19°C° 0 mm 2 mps 744 mmHg 57%
    05:00 +19°C° 0 mm 2 mps 744 mmHg 57%
    06:00 +19°C° 0 mm 2 mps 744 mmHg 58%
    07:00 +21°C° 0 mm 2 mps 744 mmHg 49%
    08:00 +25°C° 0 mm 2 mps 745 mmHg 41%
    09:00 +28°C° 0 mm 1 mps 745 mmHg 33%
    10:00 +29°C° 0 mm 2 mps 745 mmHg 35%
    11:00 +29°C° 0 mm 2 mps 745 mmHg 37%
    12:00 +29°C° 0 mm 2 mps 745 mmHg 39%
    13:00 +29°C° 0.1 mm 3 mps 744 mmHg 43%
    14:00 +29°C° 0.1 mm 3 mps 744 mmHg 46%
    15:00 +29°C° 0.1 mm 3 mps 743 mmHg 49%
    16:00 +28°C° 0.2 mm 3 mps 743 mmHg 55%
    17:00 +28°C° 0.2 mm 3 mps 743 mmHg 61%
    18:00 +27°C° 0.2 mm 3 mps 743 mmHg 67%
    19:00 +25°C° 0.9 mm 2 mps 743 mmHg 76%
    20:00 +24°C° 0.9 mm 1 mps 743 mmHg 85%
    21:00 +22°C° 0.9 mm 1 mps 744 mmHg 93%
    22:00 +21°C° 0.1 mm 1 mps 744 mmHg 94%
    23:00 +21°C° 0.1 mm 1 mps 744 mmHg 94%
    Show more